Location: La Fredeussais
(48.1780°N, 1.3980°W)
Time: 18:11:59
(UTC+00:00)

Cosmos 1782 - Pass Details

Date: 09 May 2021
Orbit: 537 x 550 km, 82.5° (Epoch: 15 June)

Event Time Altitude Azimuth Distance (km) Brightness Sun altitude
Exits shadow 20:37:05 10° 162° (SSE) 1,845 5.0 -9.9°
Reaches altitude 10° 20:37:10 10° 162° (SSE) 1,817 4.9 -10.0°
Maximum altitude 20:40:54 40° 93° (E) 822 3.3 -10.4°
Drops below altitude 10° 20:44:40 10° 24° (NNE) 1,825 5.7 -10.9°
Sets 20:46:55 0° 16° (NNE) 2,721 6.7 -11.2°
